User: anonymous   Login
Location: Contre
(49.7477°N, 2.0963°E)
Time: 13:38:33
(UTC+00:00)
Language:

Cosmos 1340 - Orbit

View from above orbital plane
View from above orbital plane
View from above satellite
View from above satellite

Ground track
Ground track

The orbit data is extracted from the following two-line orbital elements,

1 13067U 82013A   23160.76943215  .00012118  00000-0  41430-3 0  9998
2 13067  81.1823  99.6143 0004412  39.1600 320.9955 15.30148674259530
Epoch (UTC): 09 June 2023 18:27:58
Eccentricity: 0.0004412
inclination: 81.1823°
perigee height: 472 km
apogee height: 478 km
right ascension of ascending node: 99.6143°
argument of perigee: 39.1600°
revolutions per day: 15.30148674
mean anomaly at epoch: 320.9955°
orbit number at epoch: 25953

The dashed part of the orbit path shows where the satellite is in the earth's shadow,  

DLR